Starlink 31518

operational
NORAD ID: 59219 Int'l Des: 2024-046 Owner: SPXS Country: US Constellation: starlink
LEOCIRCULAR

Starlink 31518について

説明を読み込み中...

リアルタイム位置

3D地球を読み込み中...

次回通過

高度履歴

Altitude vs Time

uPlot chart will show altitude changes over time

軌道要素

1 59219U 24046U 26035.45684355 .00003526 00000-0 13122-3 0 9996
2 59219 53.1603 309.5454 0001085 94.3388 265.7737 15.30176503107955
Epoch: Feb 4, 2026 • Age: 20 hours

現在のステータス

高度 480.7 km
速度 7.63 km/s
衛星直下点 -19.05°S, 94.72°W
打ち上げ日 Mar 11, 2024
運用期間 1.9 years
タイプ internet

技術仕様

分類 Payload
質量 730.00 kg
乾燥質量 700.00 kg
総質量 730.00 kg
長さ 0.30 m
直径 4.10 m
スパン 29.00 m
形状 Box + pan
製造者 SPXS
バスタイプ Starlink V2M
フェーズステータス In Orbit
所有者/国 SPXS/US

大規模コンステレーション

Loading constellations...